Osage River (Missouri), Taberville (06918250)

StateMissouriLatestLow (4000 cfs)
RiverOsage RiverRatingObservedEstimated
Updated2026-05-10 9:45 (22 minutes ago)Flood - The river is flooding. Obstacles can be treacherous or deadly. The river should be avoided at this stage for casual trips and definitely for the inexperienced. Trips should be attempted only with protective gear and equipment.Flood(none)37116
Discharge4000 cfs (median: 5560 cfs)High - The river is high and potentially dangerous, especially for the young and / or inexperienced. Normal stream obstacles are sometimes difficult to navigate. Extended distances can be attempted, but canoe travel may not be advisable.High(none)8056
Height15.18 feetGood - Conditions are ideal for a canoe or kayak. Boats typically will drag on fewer than one-quarter of riffles, if at all, and portages are unnecessary or rare. Normal float lengths can be attempted without a problem.Good(none)4366
TrendRising (falling over 24 hours)Low - River is low but can still be floated. Some riffles are okay but most come with significant dragging and might need a portage. Float lengths should be reduced to accommodate low flow, dragging, and portages.Low(none)884
USGSExternal icon USGS Site (External icon Duck Duck Go Maps)Poor - River is too low to float comfortably. Most or all riffles will drag or must be portaged and some obstacles (such as slick shelf rock) cause undue problems. Avoid the river at this stage for casual paddling trips.Poor(none)50

Trending Data

Plot Image

Trips for Osage River (Missouri), Taberville (06918250)

DateStartEndDistanceConditionDischargeHeightFishingDetails

A total of 0 rows are displayed.

Condition Descriptions

Fishing Conditions

Fish Species

Notes

Classic Trip List

The classic River Trips application is still available for use. It is updated with the new system using a data retrofit. It is no longer maintained. The original River Trips application is no longer updated (as of 1 Dec 2016) but can be checked for errors or for the condition of the data before it was converted to the new system.

Gauge Data Table

ObservationHeightDischargeMaximum
Discharge
Minimum
Discharge
Mean
Discharge
P05P10P20P25P50
(Median)
P75P80P90P95
2026-05-10 09:45 15.18 4000 37100 (2019) 619 (2014) 10100 639 821 839 5560 17400 21900 35800
2026-05-10 08:45 15.21 3970 37100 (2019) 619 (2014) 10100 639 821 839 5560 17400 21900 35800
2026-05-10 07:45 15.25 4050 37100 (2019) 619 (2014) 10100 639 821 839 5560 17400 21900 35800
2026-05-10 06:45 15.28 4210 37100 (2019) 619 (2014) 10100 639 821 839 5560 17400 21900 35800
2026-05-10 05:45 15.31 4480 37100 (2019) 619 (2014) 10100 639 821 839 5560 17400 21900 35800
2026-05-10 04:45 15.35 4460 37100 (2019) 619 (2014) 10100 639 821 839 5560 17400 21900 35800
2026-05-10 03:45 15.39 4470 37100 (2019) 619 (2014) 10100 639 821 839 5560 17400 21900 35800
2026-05-10 02:45 15.44 4670 37100 (2019) 619 (2014) 10100 639 821 839 5560 17400 21900 35800
2026-05-10 01:45 15.49 4460 37100 (2019) 619 (2014) 10100 639 821 839 5560 17400 21900 35800
2026-05-10 00:45 15.54 4700 37100 (2019) 619 (2014) 10100 639 821 839 5560 17400 21900 35800
2026-05-09 23:45 15.58 4670 37100 (2019) 619 (2014) 10100 639 821 839 5560 17400 21900 35800
2026-05-09 22:45 15.63 4800 34800 (2019) 341 (2014) 10500 419 1140 1210 6630 14500 26000 34300
2026-05-09 21:45 15.68 4860 34800 (2019) 341 (2014) 10500 419 1140 1210 6630 14500 26000 34300
2026-05-09 20:45 15.73 5060 34800 (2019) 341 (2014) 10500 419 1140 1210 6630 14500 26000 34300
2026-05-09 19:45 15.78 5000 34800 (2019) 341 (2014) 10500 419 1140 1210 6630 14500 26000 34300
2026-05-09 18:45 15.81 5090 34800 (2019) 341 (2014) 10500 419 1140 1210 6630 14500 26000 34300
2026-05-09 17:45 15.85 5330 34800 (2019) 341 (2014) 10500 419 1140 1210 6630 14500 26000 34300
2026-05-09 16:45 15.89 5430 34800 (2019) 341 (2014) 10500 419 1140 1210 6630 14500 26000 34300
2026-05-09 15:45 15.97 5570 34800 (2019) 341 (2014) 10500 419 1140 1210 6630 14500 26000 34300
2026-05-09 14:45 15.99 5540 34800 (2019) 341 (2014) 10500 419 1140 1210 6630 14500 26000 34300
2026-05-09 13:45 16.01 5580 34800 (2019) 341 (2014) 10500 419 1140 1210 6630 14500 26000 34300
2026-05-09 12:45 16.07 5400 34800 (2019) 341 (2014) 10500 419 1140 1210 6630 14500 26000 34300
2026-05-09 11:45 16.10 5370 34800 (2019) 341 (2014) 10500 419 1140 1210 6630 14500 26000 34300
2026-05-09 10:45 16.16 5430 34800 (2019) 341 (2014) 10500 419 1140 1210 6630 14500 26000 34300
2026-05-09 09:45 16.19 5320 34800 (2019) 341 (2014) 10500 419 1140 1210 6630 14500 26000 34300
2026-05-09 08:45 16.24 5220 34800 (2019) 341 (2014) 10500 419 1140 1210 6630 14500 26000 34300
2026-05-09 07:45 16.28 5270 34800 (2019) 341 (2014) 10500 419 1140 1210 6630 14500 26000 34300
2026-05-09 06:45 16.34 5450 34800 (2019) 341 (2014) 10500 419 1140 1210 6630 14500 26000 34300
2026-05-09 05:45 16.38 5540 34800 (2019) 341 (2014) 10500 419 1140 1210 6630 14500 26000 34300
2026-05-09 04:45 16.42 5430 34800 (2019) 341 (2014) 10500 419 1140 1210 6630 14500 26000 34300
2026-05-09 03:45 16.46 5160 34800 (2019) 341 (2014) 10500 419 1140 1210 6630 14500 26000 34300
2026-05-09 02:45 16.51 5460 34800 (2019) 341 (2014) 10500 419 1140 1210 6630 14500 26000 34300
2026-05-09 01:45 16.55 5560 34800 (2019) 341 (2014) 10500 419 1140 1210 6630 14500 26000 34300
2026-05-09 00:45 16.57 5560 34800 (2019) 341 (2014) 10500 419 1140 1210 6630 14500 26000 34300
2026-05-08 23:45 16.63 5540 34800 (2019) 341 (2014) 10500 419 1140 1210 6630 14500 26000 34300
2026-05-08 22:45 16.67 5590 37600 (2019) 748 (2014) 12200 775 1050 1130 7800 20400 32900 37600
2026-05-08 21:45 16.70 5770 37600 (2019) 748 (2014) 12200 775 1050 1130 7800 20400 32900 37600
2026-05-08 20:45 16.74 5950 37600 (2019) 748 (2014) 12200 775 1050 1130 7800 20400 32900 37600
2026-05-08 19:45 16.73 5980 37600 (2019) 748 (2014) 12200 775 1050 1130 7800 20400 32900 37600
2026-05-08 18:45 16.80 6090 37600 (2019) 748 (2014) 12200 775 1050 1130 7800 20400 32900 37600
2026-05-08 17:45 16.84 6020 37600 (2019) 748 (2014) 12200 775 1050 1130 7800 20400 32900 37600
2026-05-08 16:45 16.88 5990 37600 (2019) 748 (2014) 12200 775 1050 1130 7800 20400 32900 37600
2026-05-08 15:45 16.90 6040 37600 (2019) 748 (2014) 12200 775 1050 1130 7800 20400 32900 37600
2026-05-08 14:45 16.94 5970 37600 (2019) 748 (2014) 12200 775 1050 1130 7800 20400 32900 37600
2026-05-08 13:45 16.99 6070 37600 (2019) 748 (2014) 12200 775 1050 1130 7800 20400 32900 37600
2026-05-08 12:45 17.00 6120 37600 (2019) 748 (2014) 12200 775 1050 1130 7800 20400 32900 37600
2026-05-08 11:45 17.07 5890 37600 (2019) 748 (2014) 12200 775 1050 1130 7800 20400 32900 37600
2026-05-08 10:45 17.08 6060 37600 (2019) 748 (2014) 12200 775 1050 1130 7800 20400 32900 37600
2026-05-08 09:45 17.12 6240 37600 (2019) 748 (2014) 12200 775 1050 1130 7800 20400 32900 37600
2026-05-08 08:45 17.14 6120 37600 (2019) 748 (2014) 12200 775 1050 1130 7800 20400 32900 37600
2026-05-08 07:45 17.18 6220 37600 (2019) 748 (2014) 12200 775 1050 1130 7800 20400 32900 37600
2026-05-08 06:45 17.21 6270 37600 (2019) 748 (2014) 12200 775 1050 1130 7800 20400 32900 37600
2026-05-08 05:45 17.24 6540 37600 (2019) 748 (2014) 12200 775 1050 1130 7800 20400 32900 37600
2026-05-08 04:45 17.27 6510 37600 (2019) 748 (2014) 12200 775 1050 1130 7800 20400 32900 37600
2026-05-08 03:45 17.29 6600 37600 (2019) 748 (2014) 12200 775 1050 1130 7800 20400 32900 37600
2026-05-08 02:45 17.35 6620 37600 (2019) 748 (2014) 12200 775 1050 1130 7800 20400 32900 37600
2026-05-08 01:45 17.39 6640 37600 (2019) 748 (2014) 12200 775 1050 1130 7800 20400 32900 37600
2026-05-08 00:45 17.42 6820 37600 (2019) 748 (2014) 12200 775 1050 1130 7800 20400 32900 37600
2026-05-07 23:45 17.46 6790 37600 (2019) 748 (2014) 12200 775 1050 1130 7800 20400 32900 37600
2026-05-07 22:45 17.50 6890 44600 (2017) 636 (2015) 13600 659 872 892 9950 22300 34300 44000
2026-05-07 21:45 17.53 6820 44600 (2017) 636 (2015) 13600 659 872 892 9950 22300 34300 44000
2026-05-07 20:45 17.55 6820 44600 (2017) 636 (2015) 13600 659 872 892 9950 22300 34300 44000
2026-05-07 19:45 17.60 6760 44600 (2017) 636 (2015) 13600 659 872 892 9950 22300 34300 44000
2026-05-07 18:45 17.61 7020 44600 (2017) 636 (2015) 13600 659 872 892 9950 22300 34300 44000
2026-05-07 17:45 17.64 6940 44600 (2017) 636 (2015) 13600 659 872 892 9950 22300 34300 44000
2026-05-07 16:45 17.66 6910 44600 (2017) 636 (2015) 13600 659 872 892 9950 22300 34300 44000
2026-05-07 15:45 17.72 7100 44600 (2017) 636 (2015) 13600 659 872 892 9950 22300 34300 44000
2026-05-07 14:45 17.74 6980 44600 (2017) 636 (2015) 13600 659 872 892 9950 22300 34300 44000
2026-05-07 13:45 17.77 7210 44600 (2017) 636 (2015) 13600 659 872 892 9950 22300 34300 44000
2026-05-07 12:45 17.82 6930 44600 (2017) 636 (2015) 13600 659 872 892 9950 22300 34300 44000
2026-05-07 11:45 17.84 6800 44600 (2017) 636 (2015) 13600 659 872 892 9950 22300 34300 44000
2026-05-07 10:45 17.84 6800 44600 (2017) 636 (2015) 13600 659 872 892 9950 22300 34300 44000
2026-05-07 09:45 17.89 7000 44600 (2017) 636 (2015) 13600 659 872 892 9950 22300 34300 44000
2026-05-07 08:45 17.91 7050 44600 (2017) 636 (2015) 13600 659 872 892 9950 22300 34300 44000
2026-05-07 07:45 17.95 6890 44600 (2017) 636 (2015) 13600 659 872 892 9950 22300 34300 44000
2026-05-07 06:45 17.99 6860 44600 (2017) 636 (2015) 13600 659 872 892 9950 22300 34300 44000
2026-05-07 05:45 18.02 7000 44600 (2017) 636 (2015) 13600 659 872 892 9950 22300 34300 44000
2026-05-07 04:45 18.05 6920 44600 (2017) 636 (2015) 13600 659 872 892 9950 22300 34300 44000
2026-05-07 03:45 18.09 6940 44600 (2017) 636 (2015) 13600 659 872 892 9950 22300 34300 44000
2026-05-07 02:45 18.12 6860 44600 (2017) 636 (2015) 13600 659 872 892 9950 22300 34300 44000
2026-05-07 01:45 18.16 6880 44600 (2017) 636 (2015) 13600 659 872 892 9950 22300 34300 44000
2026-05-07 00:45 18.20 6980 44600 (2017) 636 (2015) 13600 659 872 892 9950 22300 34300 44000
2026-05-06 23:45 18.23 7170 44600 (2017) 636 (2015) 13600 659 872 892 9950 22300 34300 44000
2026-05-06 22:45 18.26 6960 48200 (2017) 674 (2015) 14800 700 934 942 11900 22300 36600 47600
2026-05-06 21:45 18.30 6930 48200 (2017) 674 (2015) 14800 700 934 942 11900 22300 36600 47600
2026-05-06 20:45 18.33 6810 48200 (2017) 674 (2015) 14800 700 934 942 11900 22300 36600 47600
2026-05-06 19:45 18.36 7130 48200 (2017) 674 (2015) 14800 700 934 942 11900 22300 36600 47600
2026-05-06 18:45 18.39 7010 48200 (2017) 674 (2015) 14800 700 934 942 11900 22300 36600 47600
2026-05-06 17:45 18.42 7110 48200 (2017) 674 (2015) 14800 700 934 942 11900 22300 36600 47600
2026-05-06 16:45 18.42 7250 48200 (2017) 674 (2015) 14800 700 934 942 11900 22300 36600 47600
2026-05-06 15:45 18.48 7310 48200 (2017) 674 (2015) 14800 700 934 942 11900 22300 36600 47600
2026-05-06 14:45 18.50 7190 48200 (2017) 674 (2015) 14800 700 934 942 11900 22300 36600 47600
2026-05-06 13:45 18.52 48200 (2017) 674 (2015) 14800 700 934 942 11900 22300 36600 47600
2026-05-06 12:45 18.55 48200 (2017) 674 (2015) 14800 700 934 942 11900 22300 36600 47600
2026-05-06 11:45 18.58 48200 (2017) 674 (2015) 14800 700 934 942 11900 22300 36600 47600
2026-05-06 10:45 18.62 48200 (2017) 674 (2015) 14800 700 934 942 11900 22300 36600 47600
2026-05-06 09:45 18.67 48200 (2017) 674 (2015) 14800 700 934 942 11900 22300 36600 47600
2026-05-06 08:45 18.71 48200 (2017) 674 (2015) 14800 700 934 942 11900 22300 36600 47600
2026-05-06 07:45 18.74 48200 (2017) 674 (2015) 14800 700 934 942 11900 22300 36600 47600
2026-05-06 06:45 18.77 48200 (2017) 674 (2015) 14800 700 934 942 11900 22300 36600 47600
2026-05-06 05:45 18.81 48200 (2017) 674 (2015) 14800 700 934 942 11900 22300 36600 47600
2026-05-06 04:45 18.84 48200 (2017) 674 (2015) 14800 700 934 942 11900 22300 36600 47600
2026-05-06 03:45 18.88 48200 (2017) 674 (2015) 14800 700 934 942 11900 22300 36600 47600
2026-05-06 02:45 18.91 48200 (2017) 674 (2015) 14800 700 934 942 11900 22300 36600 47600
2026-05-06 01:45 18.95 48200 (2017) 674 (2015) 14800 700 934 942 11900 22300 36600 47600
2026-05-06 00:45 18.99 48200 (2017) 674 (2015) 14800 700 934 942 11900 22300 36600 47600
2026-05-05 23:45 19.02 48200 (2017) 674 (2015) 14800 700 934 942 11900 22300 36600 47600
2026-05-05 22:45 19.05 49600 (2017) 878 (2014) 15300 879 908 971 12800 22200 38000 49000
2026-05-05 21:45 19.09 49600 (2017) 878 (2014) 15300 879 908 971 12800 22200 38000 49000
2026-05-05 20:45 19.12 49600 (2017) 878 (2014) 15300 879 908 971 12800 22200 38000 49000
2026-05-05 19:45 19.13 49600 (2017) 878 (2014) 15300 879 908 971 12800 22200 38000 49000
2026-05-05 18:45 19.17 49600 (2017) 878 (2014) 15300 879 908 971 12800 22200 38000 49000
2026-05-05 17:45 19.21 49600 (2017) 878 (2014) 15300 879 908 971 12800 22200 38000 49000
2026-05-05 16:45 19.22 49600 (2017) 878 (2014) 15300 879 908 971 12800 22200 38000 49000
2026-05-05 15:45 19.25 49600 (2017) 878 (2014) 15300 879 908 971 12800 22200 38000 49000
2026-05-05 14:45 19.28 49600 (2017) 878 (2014) 15300 879 908 971 12800 22200 38000 49000
2026-05-05 13:45 19.30 49600 (2017) 878 (2014) 15300 879 908 971 12800 22200 38000 49000
2026-05-05 12:45 19.28 49600 (2017) 878 (2014) 15300 879 908 971 12800 22200 38000 49000
2026-05-05 11:45 19.30 214 49600 (2017) 878 (2014) 15300 879 908 971 12800 22200 38000 49000
2026-05-05 10:45 19.29 214 49600 (2017) 878 (2014) 15300 879 908 971 12800 22200 38000 49000
2026-05-05 09:45 19.29 214 49600 (2017) 878 (2014) 15300 879 908 971 12800 22200 38000 49000
2026-05-05 08:45 19.29 214 49600 (2017) 878 (2014) 15300 879 908 971 12800 22200 38000 49000
2026-05-05 07:45 19.33 214 49600 (2017) 878 (2014) 15300 879 908 971 12800 22200 38000 49000
2026-05-05 06:45 19.32 214 49600 (2017) 878 (2014) 15300 879 908 971 12800 22200 38000 49000
2026-05-05 05:45 19.35 215 49600 (2017) 878 (2014) 15300 879 908 971 12800 22200 38000 49000
2026-05-05 04:45 19.38 215 49600 (2017) 878 (2014) 15300 879 908 971 12800 22200 38000 49000
2026-05-05 03:45 19.39 215 49600 (2017) 878 (2014) 15300 879 908 971 12800 22200 38000 49000
2026-05-05 02:45 19.44 216 49600 (2017) 878 (2014) 15300 879 908 971 12800 22200 38000 49000
2026-05-05 01:45 19.47 216 49600 (2017) 878 (2014) 15300 879 908 971 12800 22200 38000 49000
2026-05-05 00:45 19.49 216 49600 (2017) 878 (2014) 15300 879 908 971 12800 22200 38000 49000
2026-05-05 00:00 8820 49600 (2017) 878 (2014) 15300 879 908 971 12800 22200 38000 49000
2026-05-04 23:45 19.52 8830 49600 (2017) 878 (2014) 15300 879 908 971 12800 22200 38000 49000
2026-05-04 22:45 19.55 8940 50200 (2017) 878 (2015) 14300 890 1060 1250 8810 22500 33900 49000
2026-05-04 21:45 19.56 8800 50200 (2017) 878 (2015) 14300 890 1060 1250 8810 22500 33900 49000
2026-05-04 20:45 19.61 8920 50200 (2017) 878 (2015) 14300 890 1060 1250 8810 22500 33900 49000
2026-05-04 19:45 19.65 9130 50200 (2017) 878 (2015) 14300 890 1060 1250 8810 22500 33900 49000
2026-05-04 18:45 19.67 8900 50200 (2017) 878 (2015) 14300 890 1060 1250 8810 22500 33900 49000
2026-05-04 17:45 19.71 8630 50200 (2017) 878 (2015) 14300 890 1060 1250 8810 22500 33900 49000
2026-05-04 16:45 19.75 9320 50200 (2017) 878 (2015) 14300 890 1060 1250 8810 22500 33900 49000
2026-05-04 15:45 19.79 9050 50200 (2017) 878 (2015) 14300 890 1060 1250 8810 22500 33900 49000
2026-05-04 14:45 19.84 9370 50200 (2017) 878 (2015) 14300 890 1060 1250 8810 22500 33900 49000
2026-05-04 13:45 19.86 9330 50200 (2017) 878 (2015) 14300 890 1060 1250 8810 22500 33900 49000
2026-05-04 12:45 19.91 9450 50200 (2017) 878 (2015) 14300 890 1060 1250 8810 22500 33900 49000
2026-05-04 11:45 19.95 221 50200 (2017) 878 (2015) 14300 890 1060 1250 8810 22500 33900 49000
2026-05-04 10:45 19.96 9860 50200 (2017) 878 (2015) 14300 890 1060 1250 8810 22500 33900 49000
2026-05-04 09:45 19.99 9880 50200 (2017) 878 (2015) 14300 890 1060 1250 8810 22500 33900 49000
2026-05-04 08:45 20.03 9900 50200 (2017) 878 (2015) 14300 890 1060 1250 8810 22500 33900 49000
2026-05-04 07:45 20.10 50200 (2017) 878 (2015) 14300 890 1060 1250 8810 22500 33900 49000
2026-05-04 06:45 20.16 50200 (2017) 878 (2015) 14300 890 1060 1250 8810 22500 33900 49000
2026-05-04 05:45 20.22 50200 (2017) 878 (2015) 14300 890 1060 1250 8810 22500 33900 49000
2026-05-04 04:45 20.27 50200 (2017) 878 (2015) 14300 890 1060 1250 8810 22500 33900 49000
2026-05-04 03:45 20.30 50200 (2017) 878 (2015) 14300 890 1060 1250 8810 22500 33900 49000
2026-05-04 02:45 20.34 50200 (2017) 878 (2015) 14300 890 1060 1250 8810 22500 33900 49000
2026-05-04 01:45 20.37 50200 (2017) 878 (2015) 14300 890 1060 1250 8810 22500 33900 49000
2026-05-04 00:45 20.43 50200 (2017) 878 (2015) 14300 890 1060 1250 8810 22500 33900 49000
2026-05-03 23:45 20.48 50200 (2017) 878 (2015) 14300 890 1060 1250 8810 22500 33900 49000
2026-05-03 22:45 20.52 44300 (2017) 705 (2018) 11800 742 1120 1270 5300 21700 23900 42300
2026-05-03 21:45 20.57 44300 (2017) 705 (2018) 11800 742 1120 1270 5300 21700 23900 42300
2026-05-03 20:45 20.62 44300 (2017) 705 (2018) 11800 742 1120 1270 5300 21700 23900 42300
2026-05-03 19:45 20.67 44300 (2017) 705 (2018) 11800 742 1120 1270 5300 21700 23900 42300
2026-05-03 18:45 20.73 44300 (2017) 705 (2018) 11800 742 1120 1270 5300 21700 23900 42300
2026-05-03 17:45 20.78 44300 (2017) 705 (2018) 11800 742 1120 1270 5300 21700 23900 42300
2026-05-03 16:45 20.83 44300 (2017) 705 (2018) 11800 742 1120 1270 5300 21700 23900 42300
2026-05-03 15:45 20.88 44300 (2017) 705 (2018) 11800 742 1120 1270 5300 21700 23900 42300
2026-05-03 14:45 20.96 44300 (2017) 705 (2018) 11800 742 1120 1270 5300 21700 23900 42300
2026-05-03 13:45 21.00 44300 (2017) 705 (2018) 11800 742 1120 1270 5300 21700 23900 42300
2026-05-03 12:45 21.06 44300 (2017) 705 (2018) 11800 742 1120 1270 5300 21700 23900 42300
2026-05-03 11:45 21.10 44300 (2017) 705 (2018) 11800 742 1120 1270 5300 21700 23900 42300
2026-05-03 10:45 21.18 44300 (2017) 705 (2018) 11800 742 1120 1270 5300 21700 23900 42300
2026-05-03 09:45 21.24 44300 (2017) 705 (2018) 11800 742 1120 1270 5300 21700 23900 42300
2026-05-03 08:45 21.29 44300 (2017) 705 (2018) 11800 742 1120 1270 5300 21700 23900 42300
2026-05-03 07:45 21.36 44300 (2017) 705 (2018) 11800 742 1120 1270 5300 21700 23900 42300
2026-05-03 06:45 21.47 44300 (2017) 705 (2018) 11800 742 1120 1270 5300 21700 23900 42300
2026-05-03 05:45 21.52 44300 (2017) 705 (2018) 11800 742 1120 1270 5300 21700 23900 42300
2026-05-03 04:45 21.59 44300 (2017) 705 (2018) 11800 742 1120 1270 5300 21700 23900 42300
2026-05-03 03:45 21.66 44300 (2017) 705 (2018) 11800 742 1120 1270 5300 21700 23900 42300
2026-05-03 02:45 21.74 44300 (2017) 705 (2018) 11800 742 1120 1270 5300 21700 23900 42300
2026-05-03 01:45 21.82 44300 (2017) 705 (2018) 11800 742 1120 1270 5300 21700 23900 42300
2026-05-03 00:45 21.90 44300 (2017) 705 (2018) 11800 742 1120 1270 5300 21700 23900 42300
2026-05-02 23:45 21.97 44300 (2017) 705 (2018) 11800 742 1120 1270 5300 21700 23900 42300
2026-05-02 22:45 22.06 35300 (2017) 1030 (2018) 10100 1050 1290 1520 6550 16300 19600 33900
2026-05-02 21:45 22.14 35300 (2017) 1030 (2018) 10100 1050 1290 1520 6550 16300 19600 33900
2026-05-02 20:45 22.22 35300 (2017) 1030 (2018) 10100 1050 1290 1520 6550 16300 19600 33900
2026-05-02 19:45 22.31 35300 (2017) 1030 (2018) 10100 1050 1290 1520 6550 16300 19600 33900
2026-05-02 18:45 22.41 35300 (2017) 1030 (2018) 10100 1050 1290 1520 6550 16300 19600 33900
2026-05-02 17:45 22.49 35300 (2017) 1030 (2018) 10100 1050 1290 1520 6550 16300 19600 33900
2026-05-02 16:45 22.59 35300 (2017) 1030 (2018) 10100 1050 1290 1520 6550 16300 19600 33900
2026-05-02 15:45 22.68 35300 (2017) 1030 (2018) 10100 1050 1290 1520 6550 16300 19600 33900
2026-05-02 14:45 22.75 35300 (2017) 1030 (2018) 10100 1050 1290 1520 6550 16300 19600 33900
2026-05-02 13:45 22.85 35300 (2017) 1030 (2018) 10100 1050 1290 1520 6550 16300 19600 33900
2026-05-02 12:45 22.94 35300 (2017) 1030 (2018) 10100 1050 1290 1520 6550 16300 19600 33900
2026-05-02 11:45 23.01 35300 (2017) 1030 (2018) 10100 1050 1290 1520 6550 16300 19600 33900
2026-05-02 10:45 23.08 35300 (2017) 1030 (2018) 10100 1050 1290 1520 6550 16300 19600 33900
2026-05-02 09:45 23.16 35300 (2017) 1030 (2018) 10100 1050 1290 1520 6550 16300 19600 33900
2026-05-02 08:45 23.25 35300 (2017) 1030 (2018) 10100 1050 1290 1520 6550 16300 19600 33900
2026-05-02 07:45 23.32 35300 (2017) 1030 (2018) 10100 1050 1290 1520 6550 16300 19600 33900
2026-05-02 06:45 23.41 35300 (2017) 1030 (2018) 10100 1050 1290 1520 6550 16300 19600 33900
2026-05-02 05:45 23.48 35300 (2017) 1030 (2018) 10100 1050 1290 1520 6550 16300 19600 33900
2026-05-02 04:45 23.55 35300 (2017) 1030 (2018) 10100 1050 1290 1520 6550 16300 19600 33900
2026-05-02 03:45 23.61 35300 (2017) 1030 (2018) 10100 1050 1290 1520 6550 16300 19600 33900
2026-05-02 02:45 23.67 35300 (2017) 1030 (2018) 10100 1050 1290 1520 6550 16300 19600 33900
2026-05-02 01:45 23.73 35300 (2017) 1030 (2018) 10100 1050 1290 1520 6550 16300 19600 33900
2026-05-02 00:45 23.79 35300 (2017) 1030 (2018) 10100 1050 1290 1520 6550 16300 19600 33900
2026-05-01 23:45 23.84 35300 (2017) 1030 (2018) 10100 1050 1290 1520 6550 16300 19600 33900
2026-05-01 22:45 23.89 26400 (2017) 834 (2018) 10000 887 1480 1800 9320 17200 19800 25800
2026-05-01 21:45 23.93 26400 (2017) 834 (2018) 10000 887 1480 1800 9320 17200 19800 25800
2026-05-01 20:45 23.97 26400 (2017) 834 (2018) 10000 887 1480 1800 9320 17200 19800 25800
2026-05-01 19:45 24.01 26400 (2017) 834 (2018) 10000 887 1480 1800 9320 17200 19800 25800
2026-05-01 18:45 24.06 26400 (2017) 834 (2018) 10000 887 1480 1800 9320 17200 19800 25800
2026-05-01 17:45 24.09 26400 (2017) 834 (2018) 10000 887 1480 1800 9320 17200 19800 25800
2026-05-01 16:45 24.13 26400 (2017) 834 (2018) 10000 887 1480 1800 9320 17200 19800 25800
2026-05-01 15:45 24.16 26400 (2017) 834 (2018) 10000 887 1480 1800 9320 17200 19800 25800
2026-05-01 14:45 24.18 26400 (2017) 834 (2018) 10000 887 1480 1800 9320 17200 19800 25800
2026-05-01 13:45 24.19 26400 (2017) 834 (2018) 10000 887 1480 1800 9320 17200 19800 25800
2026-05-01 12:45 24.20 26400 (2017) 834 (2018) 10000 887 1480 1800 9320 17200 19800 25800
2026-05-01 11:45 24.19 26400 (2017) 834 (2018) 10000 887 1480 1800 9320 17200 19800 25800
2026-05-01 10:45 24.20 26400 (2017) 834 (2018) 10000 887 1480 1800 9320 17200 19800 25800
2026-05-01 09:45 24.20 26400 (2017) 834 (2018) 10000 887 1480 1800 9320 17200 19800 25800
2026-05-01 08:45 24.21 26400 (2017) 834 (2018) 10000 887 1480 1800 9320 17200 19800 25800
2026-05-01 07:45 24.22 26400 (2017) 834 (2018) 10000 887 1480 1800 9320 17200 19800 25800
2026-05-01 06:45 24.24 26400 (2017) 834 (2018) 10000 887 1480 1800 9320 17200 19800 25800
2026-05-01 05:45 24.23 26400 (2017) 834 (2018) 10000 887 1480 1800 9320 17200 19800 25800
2026-05-01 04:45 24.23 26400 (2017) 834 (2018) 10000 887 1480 1800 9320 17200 19800 25800
2026-05-01 03:45 24.22 26400 (2017) 834 (2018) 10000 887 1480 1800 9320 17200 19800 25800
2026-05-01 02:45 24.21 26400 (2017) 834 (2018) 10000 887 1480 1800 9320 17200 19800 25800
2026-05-01 01:45 24.20 26400 (2017) 834 (2018) 10000 887 1480 1800 9320 17200 19800 25800
2026-05-01 00:45 24.18 26400 (2017) 834 (2018) 10000 887 1480 1800 9320 17200 19800 25800
2026-04-30 23:45 24.17 26400 (2017) 834 (2018) 10000 887 1480 1800 9320 17200 19800 25800
2026-04-30 22:45 24.16 20400 (2016) 1020 (2018) 8070 1070 1620 1790 5990 15300 17900 20200
2026-04-30 21:45 24.14 20400 (2016) 1020 (2018) 8070 1070 1620 1790 5990 15300 17900 20200
2026-04-30 20:45 24.12 20400 (2016) 1020 (2018) 8070 1070 1620 1790 5990 15300 17900 20200
2026-04-30 19:45 24.10 20400 (2016) 1020 (2018) 8070 1070 1620 1790 5990 15300 17900 20200
2026-04-30 18:45 24.09 20400 (2016) 1020 (2018) 8070 1070 1620 1790 5990 15300 17900 20200
2026-04-30 17:45 24.07 20400 (2016) 1020 (2018) 8070 1070 1620 1790 5990 15300 17900 20200
2026-04-30 16:45 24.05 20400 (2016) 1020 (2018) 8070 1070 1620 1790 5990 15300 17900 20200
2026-04-30 15:45 24.03 20400 (2016) 1020 (2018) 8070 1070 1620 1790 5990 15300 17900 20200
2026-04-30 14:45 24.01 20400 (2016) 1020 (2018) 8070 1070 1620 1790 5990 15300 17900 20200
2026-04-30 13:45 23.97 20400 (2016) 1020 (2018) 8070 1070 1620 1790 5990 15300 17900 20200
2026-04-30 12:45 23.95 20400 (2016) 1020 (2018) 8070 1070 1620 1790 5990 15300 17900 20200
2026-04-30 11:45 23.90 20400 (2016) 1020 (2018) 8070 1070 1620 1790 5990 15300 17900 20200
2026-04-30 10:45 23.87 20400 (2016) 1020 (2018) 8070 1070 1620 1790 5990 15300 17900 20200
2026-04-30 09:45 23.84 20400 (2016) 1020 (2018) 8070 1070 1620 1790 5990 15300 17900 20200
2026-04-30 08:45 23.81 20400 (2016) 1020 (2018) 8070 1070 1620 1790 5990 15300 17900 20200
2026-04-30 07:45 23.79 20400 (2016) 1020 (2018) 8070 1070 1620 1790 5990 15300 17900 20200
2026-04-30 06:45 23.77 20400 (2016) 1020 (2018) 8070 1070 1620 1790 5990 15300 17900 20200
2026-04-30 05:45 23.75 20400 (2016) 1020 (2018) 8070 1070 1620 1790 5990 15300 17900 20200
2026-04-30 04:45 23.72 20400 (2016) 1020 (2018) 8070 1070 1620 1790 5990 15300 17900 20200
2026-04-30 03:45 23.69 20400 (2016) 1020 (2018) 8070 1070 1620 1790 5990 15300 17900 20200
2026-04-30 02:45 23.66 20400 (2016) 1020 (2018) 8070 1070 1620 1790 5990 15300 17900 20200
2026-04-30 01:45 23.63 20400 (2016) 1020 (2018) 8070 1070 1620 1790 5990 15300 17900 20200
2026-04-30 00:45 23.60 20400 (2016) 1020 (2018) 8070 1070 1620 1790 5990 15300 17900 20200
2026-04-29 23:45 23.56 20400 (2016) 1020 (2018) 8070 1070 1620 1790 5990 15300 17900 20200
2026-04-29 22:45 23.52 19600 (2016) 503 (2012) 7620 567 1210 1420 5690 14300 14700 19100
2026-04-29 21:45 23.49 19600 (2016) 503 (2012) 7620 567 1210 1420 5690 14300 14700 19100
2026-04-29 20:45 23.45 19600 (2016) 503 (2012) 7620 567 1210 1420 5690 14300 14700 19100
2026-04-29 19:45 23.41 19600 (2016) 503 (2012) 7620 567 1210 1420 5690 14300 14700 19100
2026-04-29 18:45 23.38 19600 (2016) 503 (2012) 7620 567 1210 1420 5690 14300 14700 19100
2026-04-29 17:45 23.34 19600 (2016) 503 (2012) 7620 567 1210 1420 5690 14300 14700 19100
2026-04-29 16:45 23.31 19600 (2016) 503 (2012) 7620 567 1210 1420 5690 14300 14700 19100
2026-04-29 15:45 23.27 19600 (2016) 503 (2012) 7620 567 1210 1420 5690 14300 14700 19100
2026-04-29 14:45 23.23 19600 (2016) 503 (2012) 7620 567 1210 1420 5690 14300 14700 19100
2026-04-29 13:45 23.19 19600 (2016) 503 (2012) 7620 567 1210 1420 5690 14300 14700 19100
2026-04-29 12:45 23.14 19600 (2016) 503 (2012) 7620 567 1210 1420 5690 14300 14700 19100
2026-04-29 11:45 23.11 19600 (2016) 503 (2012) 7620 567 1210 1420 5690 14300 14700 19100
2026-04-29 10:45 23.07 19600 (2016) 503 (2012) 7620 567 1210 1420 5690 14300 14700 19100
2026-04-29 09:45 23.03 19600 (2016) 503 (2012) 7620 567 1210 1420 5690 14300 14700 19100
2026-04-29 08:45 23.00 19600 (2016) 503 (2012) 7620 567 1210 1420 5690 14300 14700 19100
2026-04-29 07:45 22.97 264 19600 (2016) 503 (2012) 7620 567 1210 1420 5690 14300 14700 19100
2026-04-29 06:45 22.95 263 19600 (2016) 503 (2012) 7620 567 1210 1420 5690 14300 14700 19100
2026-04-29 05:45 22.91 263 19600 (2016) 503 (2012) 7620 567 1210 1420 5690 14300 14700 19100
2026-04-29 04:45 22.87 262 19600 (2016) 503 (2012) 7620 567 1210 1420 5690 14300 14700 19100
2026-04-29 03:45 22.83 261 19600 (2016) 503 (2012) 7620 567 1210 1420 5690 14300 14700 19100
2026-04-29 02:45 22.79 261 19600 (2016) 503 (2012) 7620 567 1210 1420 5690 14300 14700 19100
2026-04-29 01:45 22.75 260 19600 (2016) 503 (2012) 7620 567 1210 1420 5690 14300 14700 19100
2026-04-29 00:45 22.70 259 19600 (2016) 503 (2012) 7620 567 1210 1420 5690 14300 14700 19100
2026-04-28 23:45 22.66 258 19600 (2016) 503 (2012) 7620 567 1210 1420 5690 14300 14700 19100
2026-04-28 22:45 22.62 258 15100 (2016) 294 (2012) 7820 422 1660 1900 7340 14100 14600 15100
2026-04-28 21:45 22.57 257 15100 (2016) 294 (2012) 7820 422 1660 1900 7340 14100 14600 15100
2026-04-28 20:45 22.51 17900 15100 (2016) 294 (2012) 7820 422 1660 1900 7340 14100 14600 15100
2026-04-28 19:45 22.45 18300 15100 (2016) 294 (2012) 7820 422 1660 1900 7340 14100 14600 15100
2026-04-28 18:45 22.40 18300 15100 (2016) 294 (2012) 7820 422 1660 1900 7340 14100 14600 15100
2026-04-28 17:45 22.34 18100 15100 (2016) 294 (2012) 7820 422 1660 1900 7340 14100 14600 15100
2026-04-28 16:45 22.29 18100 15100 (2016) 294 (2012) 7820 422 1660 1900 7340 14100 14600 15100
2026-04-28 15:45 22.24 17900 15100 (2016) 294 (2012) 7820 422 1660 1900 7340 14100 14600 15100
2026-04-28 14:45 22.14 17200 15100 (2016) 294 (2012) 7820 422 1660 1900 7340 14100 14600 15100
2026-04-28 13:45 22.10 17000 15100 (2016) 294 (2012) 7820 422 1660 1900 7340 14100 14600 15100
2026-04-28 12:45 22.03 16900 15100 (2016) 294 (2012) 7820 422 1660 1900 7340 14100 14600 15100
2026-04-28 11:45 21.97 17200 15100 (2016) 294 (2012) 7820 422 1660 1900 7340 14100 14600 15100
2026-04-28 10:45 21.90 16500 15100 (2016) 294 (2012) 7820 422 1660 1900 7340 14100 14600 15100
2026-04-28 09:45 21.83 17000 15100 (2016) 294 (2012) 7820 422 1660 1900 7340 14100 14600 15100
2026-04-28 08:45 21.75 16600 15100 (2016) 294 (2012) 7820 422 1660 1900 7340 14100 14600 15100
2026-04-28 07:45 21.69 16500 15100 (2016) 294 (2012) 7820 422 1660 1900 7340 14100 14600 15100
2026-04-28 06:45 21.62 16200 15100 (2016) 294 (2012) 7820 422 1660 1900 7340 14100 14600 15100
2026-04-28 05:45 21.54 16200 15100 (2016) 294 (2012) 7820 422 1660 1900 7340 14100 14600 15100
2026-04-28 04:45 21.46 16200 15100 (2016) 294 (2012) 7820 422 1660 1900 7340 14100 14600 15100
2026-04-28 03:45 21.38 15800 15100 (2016) 294 (2012) 7820 422 1660 1900 7340 14100 14600 15100
2026-04-28 02:45 21.31 15500 15100 (2016) 294 (2012) 7820 422 1660 1900 7340 14100 14600 15100
2026-04-28 01:45 21.23 15400 15100 (2016) 294 (2012) 7820 422 1660 1900 7340 14100 14600 15100
2026-04-28 00:45 21.15 15100 15100 (2016) 294 (2012) 7820 422 1660 1900 7340 14100 14600 15100
2026-04-27 23:45 21.07 235 15100 (2016) 294 (2012) 7820 422 1660 1900 7340 14100 14600 15100
2026-04-27 22:45 20.99 234 14900 (2013) 403 (2012) 6580 491 1450 1930 2960 14000 14100 14800
2026-04-27 21:45 20.91 233 14900 (2013) 403 (2012) 6580 491 1450 1930 2960 14000 14100 14800
2026-04-27 20:45 20.84 232 14900 (2013) 403 (2012) 6580 491 1450 1930 2960 14000 14100 14800
2026-04-27 19:45 20.76 231 14900 (2013) 403 (2012) 6580 491 1450 1930 2960 14000 14100 14800
2026-04-27 18:45 20.68 230 14900 (2013) 403 (2012) 6580 491 1450 1930 2960 14000 14100 14800
2026-04-27 17:45 20.64 229 14900 (2013) 403 (2012) 6580 491 1450 1930 2960 14000 14100 14800
2026-04-27 16:45 20.61 229 14900 (2013) 403 (2012) 6580 491 1450 1930 2960 14000 14100 14800
2026-04-27 15:45 20.61 229 14900 (2013) 403 (2012) 6580 491 1450 1930 2960 14000 14100 14800
2026-04-27 14:45 20.54 228 14900 (2013) 403 (2012) 6580 491 1450 1930 2960 14000 14100 14800
2026-04-27 13:45 20.57 229 14900 (2013) 403 (2012) 6580 491 1450 1930 2960 14000 14100 14800
2026-04-27 12:45 20.53 228 14900 (2013) 403 (2012) 6580 491 1450 1930 2960 14000 14100 14800
2026-04-27 11:45 20.49 228 14900 (2013) 403 (2012) 6580 491 1450 1930 2960 14000 14100 14800
2026-04-27 10:45 20.49 13400 14900 (2013) 403 (2012) 6580 491 1450 1930 2960 14000 14100 14800
2026-04-27 09:45 20.46 13300 14900 (2013) 403 (2012) 6580 491 1450 1930 2960 14000 14100 14800
2026-04-27 08:45 20.43 12300 14900 (2013) 403 (2012) 6580 491 1450 1930 2960 14000 14100 14800
2026-04-27 07:45 20.37 12400 14900 (2013) 403 (2012) 6580 491 1450 1930 2960 14000 14100 14800
2026-04-27 06:45 20.27 12200 14900 (2013) 403 (2012) 6580 491 1450 1930 2960 14000 14100 14800
2026-04-27 05:45 20.19 11900 14900 (2013) 403 (2012) 6580 491 1450 1930 2960 14000 14100 14800
2026-04-27 04:45 20.07 11600 14900 (2013) 403 (2012) 6580 491 1450 1930 2960 14000 14100 14800
2026-04-27 03:45 19.89 11200 14900 (2013) 403 (2012) 6580 491 1450 1930 2960 14000 14100 14800
2026-04-27 02:45 19.70 10400 14900 (2013) 403 (2012) 6580 491 1450 1930 2960 14000 14100 14800
2026-04-27 01:45 19.48 10000 14900 (2013) 403 (2012) 6580 491 1450 1930 2960 14000 14100 14800
2026-04-27 00:45 19.30 9620 14900 (2013) 403 (2012) 6580 491 1450 1930 2960 14000 14100 14800
2026-04-26 23:45 19.11 9440 14900 (2013) 403 (2012) 6580 491 1450 1930 2960 14000 14100 14800
2026-04-26 22:45 18.88 8950 15400 (2013) 434 (2012) 5480 481 1040 1400 2830 12000 12900 15200
2026-04-26 21:45 18.75 8940 15400 (2013) 434 (2012) 5480 481 1040 1400 2830 12000 12900 15200
2026-04-26 20:45 18.64 9160 15400 (2013) 434 (2012) 5480 481 1040 1400 2830 12000 12900 15200
2026-04-26 19:45 18.61 9280 15400 (2013) 434 (2012) 5480 481 1040 1400 2830 12000 12900 15200
2026-04-26 18:45 18.73 9340 15400 (2013) 434 (2012) 5480 481 1040 1400 2830 12000 12900 15200
2026-04-26 17:45 18.73 9250 15400 (2013) 434 (2012) 5480 481 1040 1400 2830 12000 12900 15200
2026-04-26 16:45 18.84 9440 15400 (2013) 434 (2012) 5480 481 1040 1400 2830 12000 12900 15200
2026-04-26 15:45 18.93 9490 15400 (2013) 434 (2012) 5480 481 1040 1400 2830 12000 12900 15200
2026-04-26 14:45 19.00 9660 15400 (2013) 434 (2012) 5480 481 1040 1400 2830 12000 12900 15200
2026-04-26 13:45 19.12 9770 15400 (2013) 434 (2012) 5480 481 1040 1400 2830 12000 12900 15200
2026-04-26 12:45 19.19 10100 15400 (2013) 434 (2012) 5480 481 1040 1400 2830 12000 12900 15200
2026-04-26 11:45 19.30 10100 15400 (2013) 434 (2012) 5480 481 1040 1400 2830 12000 12900 15200
2026-04-26 10:45 19.38 10400 15400 (2013) 434 (2012) 5480 481 1040 1400 2830 12000 12900 15200
2026-04-26 09:45 19.48 10400 15400 (2013) 434 (2012) 5480 481 1040 1400 2830 12000 12900 15200
2026-04-26 08:45 19.56 10600 15400 (2013) 434 (2012) 5480 481 1040 1400 2830 12000 12900 15200
2026-04-26 07:45 19.71 11000 15400 (2013) 434 (2012) 5480 481 1040 1400 2830 12000 12900 15200
2026-04-26 06:45 19.80 11000 15400 (2013) 434 (2012) 5480 481 1040 1400 2830 12000 12900 15200
2026-04-26 05:45 19.90 11000 15400 (2013) 434 (2012) 5480 481 1040 1400 2830 12000 12900 15200
2026-04-26 04:45 19.99 11800 15400 (2013) 434 (2012) 5480 481 1040 1400 2830 12000 12900 15200
2026-04-26 03:45 20.09 11600 15400 (2013) 434 (2012) 5480 481 1040 1400 2830 12000 12900 15200
2026-04-26 02:45 20.18 11800 15400 (2013) 434 (2012) 5480 481 1040 1400 2830 12000 12900 15200
2026-04-26 01:45 20.27 11800 15400 (2013) 434 (2012) 5480 481 1040 1400 2830 12000 12900 15200
2026-04-26 00:45 20.36 12300 15400 (2013) 434 (2012) 5480 481 1040 1400 2830 12000 12900 15200
2026-04-25 23:45 20.46 12200 15400 (2013) 434 (2012) 5480 481 1040 1400 2830 12000 12900 15200
2026-04-25 22:45 20.55 12500 15500 (2013) 345 (2012) 5160 393 866 986 2460 11900 13100 15300
2026-04-25 21:45 20.64 13000 15500 (2013) 345 (2012) 5160 393 866 986 2460 11900 13100 15300
2026-04-25 20:45 20.71 12600 15500 (2013) 345 (2012) 5160 393 866 986 2460 11900 13100 15300
2026-04-25 19:45 20.81 13200 15500 (2013) 345 (2012) 5160 393 866 986 2460 11900 13100 15300
2026-04-25 18:45 20.91 13200 15500 (2013) 345 (2012) 5160 393 866 986 2460 11900 13100 15300
2026-04-25 17:45 20.98 13500 15500 (2013) 345 (2012) 5160 393 866 986 2460 11900 13100 15300
2026-04-25 16:45 21.06 13700 15500 (2013) 345 (2012) 5160 393 866 986 2460 11900 13100 15300
2026-04-25 15:45 21.12 13700 15500 (2013) 345 (2012) 5160 393 866 986 2460 11900 13100 15300
2026-04-25 14:45 21.23 14000 15500 (2013) 345 (2012) 5160 393 866 986 2460 11900 13100 15300
2026-04-25 13:45 21.31 14100 15500 (2013) 345 (2012) 5160 393 866 986 2460 11900 13100 15300
2026-04-25 12:45 21.39 14300 15500 (2013) 345 (2012) 5160 393 866 986 2460 11900 13100 15300
2026-04-25 11:45 21.45 14400 15500 (2013) 345 (2012) 5160 393 866 986 2460 11900 13100 15300
2026-04-25 10:45 21.53 14600 15500 (2013) 345 (2012) 5160 393 866 986 2460 11900 13100 15300
2026-04-25 09:45 21.60 14900 15500 (2013) 345 (2012) 5160 393 866 986 2460 11900 13100 15300
2026-04-25 08:45 21.70 15000 15500 (2013) 345 (2012) 5160 393 866 986 2460 11900 13100 15300
2026-04-25 07:45 21.81 14800 15500 (2013) 345 (2012) 5160 393 866 986 2460 11900 13100 15300
2026-04-25 06:45 21.91 15300 15500 (2013) 345 (2012) 5160 393 866 986 2460 11900 13100 15300
2026-04-25 05:45 21.98 15600 15500 (2013) 345 (2012) 5160 393 866 986 2460 11900 13100 15300
2026-04-25 04:45 22.06 15900 15500 (2013) 345 (2012) 5160 393 866 986 2460 11900 13100 15300
2026-04-25 03:45 22.13 16100 15500 (2013) 345 (2012) 5160 393 866 986 2460 11900 13100 15300
2026-04-25 02:45 22.21 16600 15500 (2013) 345 (2012) 5160 393 866 986 2460 11900 13100 15300
2026-04-25 01:45 22.28 16100 15500 (2013) 345 (2012) 5160 393 866 986 2460 11900 13100 15300
2026-04-25 00:45 22.35 16700 15500 (2013) 345 (2012) 5160 393 866 986 2460 11900 13100 15300
2026-04-24 23:45 22.41 16800 15500 (2013) 345 (2012) 5160 393 866 986 2460 11900 13100 15300
2026-04-24 22:45 22.47 17000 14600 (2013) 443 (2012) 4660 460 648 749 3140 7480 11600 14400
2026-04-24 21:45 22.54 17400 14600 (2013) 443 (2012) 4660 460 648 749 3140 7480 11600 14400
2026-04-24 20:45 22.58 17200 14600 (2013) 443 (2012) 4660 460 648 749 3140 7480 11600 14400
2026-04-24 19:45 22.63 17400 14600 (2013) 443 (2012) 4660 460 648 749 3140 7480 11600 14400
2026-04-24 18:45 22.68 17300 14600 (2013) 443 (2012) 4660 460 648 749 3140 7480 11600 14400
2026-04-24 17:45 22.73 17300 14600 (2013) 443 (2012) 4660 460 648 749 3140 7480 11600 14400
2026-04-24 16:45 22.77 17700 14600 (2013) 443 (2012) 4660 460 648 749 3140 7480 11600 14400
2026-04-24 15:45 22.81 17700 14600 (2013) 443 (2012) 4660 460 648 749 3140 7480 11600 14400
2026-04-24 14:45 22.84 18100 14600 (2013) 443 (2012) 4660 460 648 749 3140 7480 11600 14400
2026-04-24 13:45 22.87 17800 14600 (2013) 443 (2012) 4660 460 648 749 3140 7480 11600 14400
2026-04-24 12:45 22.90 18200 14600 (2013) 443 (2012) 4660 460 648 749 3140 7480 11600 14400
2026-04-24 11:45 22.93 18200 14600 (2013) 443 (2012) 4660 460 648 749 3140 7480 11600 14400
2026-04-24 10:45 22.96 18800 14600 (2013) 443 (2012) 4660 460 648 749 3140 7480 11600 14400
2026-04-24 09:45 22.99 18100 14600 (2013) 443 (2012) 4660 460 648 749 3140 7480 11600 14400
2026-04-24 08:45 23.02 18600 14600 (2013) 443 (2012) 4660 460 648 749 3140 7480 11600 14400
2026-04-24 07:45 23.05 18600 14600 (2013) 443 (2012) 4660 460 648 749 3140 7480 11600 14400
2026-04-24 06:45 23.08 18700 14600 (2013) 443 (2012) 4660 460 648 749 3140 7480 11600 14400
2026-04-24 05:45 23.11 19200 14600 (2013) 443 (2012) 4660 460 648 749 3140 7480 11600 14400
2026-04-24 04:45 23.14 19200 14600 (2013) 443 (2012) 4660 460 648 749 3140 7480 11600 14400
2026-04-24 03:45 23.17 19300 14600 (2013) 443 (2012) 4660 460 648 749 3140 7480 11600 14400
2026-04-24 02:45 23.19 19500 14600 (2013) 443 (2012) 4660 460 648 749 3140 7480 11600 14400
2026-04-24 01:45 23.16 19900 14600 (2013) 443 (2012) 4660 460 648 749 3140 7480 11600 14400
2026-04-24 00:45 23.23 19900 14600 (2013) 443 (2012) 4660 460 648 749 3140 7480 11600 14400
2026-04-23 23:45 23.23 19000 14600 (2013) 443 (2012) 4660 460 648 749 3140 7480 11600 14400
2026-04-23 22:45 23.25 20200 14000 (2013) 529 (2014) 4570 533 610 719 2970 7750 10900 13800
2026-04-23 21:45 23.26 19800 14000 (2013) 529 (2014) 4570 533 610 719 2970 7750 10900 13800
2026-04-23 20:45 23.31 20300 14000 (2013) 529 (2014) 4570 533 610 719 2970 7750 10900 13800
2026-04-23 19:45 23.31 20300 14000 (2013) 529 (2014) 4570 533 610 719 2970 7750 10900 13800
2026-04-23 18:45 23.35 20200 14000 (2013) 529 (2014) 4570 533 610 719 2970 7750 10900 13800
2026-04-23 17:45 23.35 20800 14000 (2013) 529 (2014) 4570 533 610 719 2970 7750 10900 13800
2026-04-23 16:45 23.40 20600 14000 (2013) 529 (2014) 4570 533 610 719 2970 7750 10900 13800
2026-04-23 15:45 23.40 20500 14000 (2013) 529 (2014) 4570 533 610 719 2970 7750 10900 13800
2026-04-23 14:45 23.42 20600 14000 (2013) 529 (2014) 4570 533 610 719 2970 7750 10900 13800
2026-04-23 13:45 23.46 21000 14000 (2013) 529 (2014) 4570 533 610 719 2970 7750 10900 13800
2026-04-23 12:45 23.47 20600 14000 (2013) 529 (2014) 4570 533 610 719 2970 7750 10900 13800
2026-04-23 11:45 23.50 20700 14000 (2013) 529 (2014) 4570 533 610 719 2970 7750 10900 13800
2026-04-23 10:45 23.51 21000 14000 (2013) 529 (2014) 4570 533 610 719 2970 7750 10900 13800
2026-04-23 09:45 23.50 21000 14000 (2013) 529 (2014) 4570 533 610 719 2970 7750 10900 13800
2026-04-23 08:45 23.53 21300 14000 (2013) 529 (2014) 4570 533 610 719 2970 7750 10900 13800
2026-04-23 07:45 23.55 21600 14000 (2013) 529 (2014) 4570 533 610 719 2970 7750 10900 13800
2026-04-23 06:45 23.58 21700 14000 (2013) 529 (2014) 4570 533 610 719 2970 7750 10900 13800
2026-04-23 05:45 23.61 21500 14000 (2013) 529 (2014) 4570 533 610 719 2970 7750 10900 13800
2026-04-23 04:45 23.62 21600 14000 (2013) 529 (2014) 4570 533 610 719 2970 7750 10900 13800
2026-04-23 03:45 23.63 21400 14000 (2013) 529 (2014) 4570 533 610 719 2970 7750 10900 13800
2026-04-23 02:45 23.65 21600 14000 (2013) 529 (2014) 4570 533 610 719 2970 7750 10900 13800
2026-04-23 01:45 23.66 21200 14000 (2013) 529 (2014) 4570 533 610 719 2970 7750 10900 13800
2026-04-23 00:45 23.68 21400 14000 (2013) 529 (2014) 4570 533 610 719 2970 7750 10900 13800
2026-04-22 23:45 23.69 21600 14000 (2013) 529 (2014) 4570 533 610 719 2970 7750 10900 13800
2026-04-22 22:45 23.70 21700 14200 (2013) 389 (2014) 4910 408 594 626 3330 9710 10100 13800
2026-04-22 21:45 23.71 21100 14200 (2013) 389 (2014) 4910 408 594 626 3330 9710 10100 13800
2026-04-22 20:45 23.72 21100 14200 (2013) 389 (2014) 4910 408 594 626 3330 9710 10100 13800
2026-04-22 19:45 23.73 21600 14200 (2013) 389 (2014) 4910 408 594 626 3330 9710 10100 13800
2026-04-22 18:45 23.73 21800 14200 (2013) 389 (2014) 4910 408 594 626 3330 9710 10100 13800
2026-04-22 17:45 23.74 22000 14200 (2013) 389 (2014) 4910 408 594 626 3330 9710 10100 13800
2026-04-22 16:45 23.75 21900 14200 (2013) 389 (2014) 4910 408 594 626 3330 9710 10100 13800
2026-04-22 15:45 23.76 21700 14200 (2013) 389 (2014) 4910 408 594 626 3330 9710 10100 13800
2026-04-22 14:45 23.76 21700 14200 (2013) 389 (2014) 4910 408 594 626 3330 9710 10100 13800
2026-04-22 13:45 23.76 22100 14200 (2013) 389 (2014) 4910 408 594 626 3330 9710 10100 13800
2026-04-22 12:45 23.77 21900 14200 (2013) 389 (2014) 4910 408 594 626 3330 9710 10100 13800
2026-04-22 11:45 23.77 21400 14200 (2013) 389 (2014) 4910 408 594 626 3330 9710 10100 13800
2026-04-22 10:45 23.77 21900 14200 (2013) 389 (2014) 4910 408 594 626 3330 9710 10100 13800
2026-04-22 09:45 23.78 21800 14200 (2013) 389 (2014) 4910 408 594 626 3330 9710 10100 13800
2026-04-22 08:45 23.78 21600 14200 (2013) 389 (2014) 4910 408 594 626 3330 9710 10100 13800
2026-04-22 07:45 23.79 22000 14200 (2013) 389 (2014) 4910 408 594 626 3330 9710 10100 13800
2026-04-22 06:45 23.79 21700 14200 (2013) 389 (2014) 4910 408 594 626 3330 9710 10100 13800
2026-04-22 05:45 23.80 21800 14200 (2013) 389 (2014) 4910 408 594 626 3330 9710 10100 13800
2026-04-22 04:45 23.79 21900 14200 (2013) 389 (2014) 4910 408 594 626 3330 9710 10100 13800
2026-04-22 03:45 23.79 21800 14200 (2013) 389 (2014) 4910 408 594 626 3330 9710 10100 13800
2026-04-22 02:45 23.80 21600 14200 (2013) 389 (2014) 4910 408 594 626 3330 9710 10100 13800
2026-04-22 01:45 23.80 21300 14200 (2013) 389 (2014) 4910 408 594 626 3330 9710 10100 13800
2026-04-22 00:45 23.80 21500 14200 (2013) 389 (2014) 4910 408 594 626 3330 9710 10100 13800
2026-04-21 23:45 23.81 21700 14200 (2013) 389 (2014) 4910 408 594 626 3330 9710 10100 13800
2026-04-21 22:45 23.81 21500 15300 (2013) 365 (2014) 5520 396 746 934 3310 9850 11500 15000
2026-04-21 21:45 23.80 21900 15300 (2013) 365 (2014) 5520 396 746 934 3310 9850 11500 15000
2026-04-21 20:45 23.81 21400 15300 (2013) 365 (2014) 5520 396 746 934 3310 9850 11500 15000
2026-04-21 19:45 23.81 21500 15300 (2013) 365 (2014) 5520 396 746 934 3310 9850 11500 15000
2026-04-21 18:45 23.82 21700 15300 (2013) 365 (2014) 5520 396 746 934 3310 9850 11500 15000
2026-04-21 17:45 23.82 21700 15300 (2013) 365 (2014) 5520 396 746 934 3310 9850 11500 15000
2026-04-21 16:45 23.83 22500 15300 (2013) 365 (2014) 5520 396 746 934 3310 9850 11500 15000
2026-04-21 15:45 23.83 21600 15300 (2013) 365 (2014) 5520 396 746 934 3310 9850 11500 15000
2026-04-21 14:45 23.80 22000 15300 (2013) 365 (2014) 5520 396 746 934 3310 9850 11500 15000
2026-04-21 13:45 23.81 22200 15300 (2013) 365 (2014) 5520 396 746 934 3310 9850 11500 15000
2026-04-21 12:45 23.81 21800 15300 (2013) 365 (2014) 5520 396 746 934 3310 9850 11500 15000
2026-04-21 11:45 23.80 21600 15300 (2013) 365 (2014) 5520 396 746 934 3310 9850 11500 15000
2026-04-21 10:45 23.79 21600 15300 (2013) 365 (2014) 5520 396 746 934 3310 9850 11500 15000
2026-04-21 09:45 23.81 21600 15300 (2013) 365 (2014) 5520 396 746 934 3310 9850 11500 15000
2026-04-21 08:45 23.81 22000 15300 (2013) 365 (2014) 5520 396 746 934 3310 9850 11500 15000
2026-04-21 07:45 23.81 22100 15300 (2013) 365 (2014) 5520 396 746 934 3310 9850 11500 15000
2026-04-21 06:45 23.83 21900 15300 (2013) 365 (2014) 5520 396 746 934 3310 9850 11500 15000
2026-04-21 05:45 23.83 22000 15300 (2013) 365 (2014) 5520 396 746 934 3310 9850 11500 15000
2026-04-21 04:45 23.83 22100 15300 (2013) 365 (2014) 5520 396 746 934 3310 9850 11500 15000
2026-04-21 03:45 23.84 22300 15300 (2013) 365 (2014) 5520 396 746 934 3310 9850 11500 15000
2026-04-21 02:45 23.83 21800 15300 (2013) 365 (2014) 5520 396 746 934 3310 9850 11500 15000
2026-04-21 01:45 23.83 22300 15300 (2013) 365 (2014) 5520 396 746 934 3310 9850 11500 15000
2026-04-21 00:45 23.84 22100 15300 (2013) 365 (2014) 5520 396 746 934 3310 9850 11500 15000
2026-04-20 23:45 23.84 22300 15300 (2013) 365 (2014) 5520 396 746 934 3310 9850 11500 15000
2026-04-20 22:45 23.84 22100 16700 (2013) 507 (2014) 5460 526 800 1100 2120 9890 10100 16100
2026-04-20 21:45 23.84 21900 16700 (2013) 507 (2014) 5460 526 800 1100 2120 9890 10100 16100
2026-04-20 20:45 23.84 22000 16700 (2013) 507 (2014) 5460 526 800 1100 2120 9890 10100 16100
2026-04-20 19:45 23.84 21600 16700 (2013) 507 (2014) 5460 526 800 1100 2120 9890 10100 16100
2026-04-20 18:45 23.84 22300 16700 (2013) 507 (2014) 5460 526 800 1100 2120 9890 10100 16100
2026-04-20 17:45 23.85 21900 16700 (2013) 507 (2014) 5460 526 800 1100 2120 9890 10100 16100
2026-04-20 16:45 23.84 21800 16700 (2013) 507 (2014) 5460 526 800 1100 2120 9890 10100 16100
2026-04-20 15:45 23.85 21900 16700 (2013) 507 (2014) 5460 526 800 1100 2120 9890 10100 16100
2026-04-20 14:45 23.82 21900 16700 (2013) 507 (2014) 5460 526 800 1100 2120 9890 10100 16100
2026-04-20 13:45 23.85 279 16700 (2013) 507 (2014) 5460 526 800 1100 2120 9890 10100 16100
2026-04-20 12:45 23.81 279 16700 (2013) 507 (2014) 5460 526 800 1100 2120 9890 10100 16100
2026-04-20 11:45 23.83 279 16700 (2013) 507 (2014) 5460 526 800 1100 2120 9890 10100 16100
2026-04-20 10:45 23.82 279 16700 (2013) 507 (2014) 5460 526 800 1100 2120 9890 10100 16100
2026-04-20 09:45 23.81 279 16700 (2013) 507 (2014) 5460 526 800 1100 2120 9890 10100 16100
2026-04-20 08:45 23.81 279 16700 (2013) 507 (2014) 5460 526 800 1100 2120 9890 10100 16100
2026-04-20 07:45 23.82 279 16700 (2013) 507 (2014) 5460 526 800 1100 2120 9890 10100 16100
2026-04-20 06:45 23.82 279 16700 (2013) 507 (2014) 5460 526 800 1100 2120 9890 10100 16100
2026-04-20 05:45 23.82 279 16700 (2013) 507 (2014) 5460 526 800 1100 2120 9890 10100 16100
2026-04-20 04:45 23.82 279 16700 (2013) 507 (2014) 5460 526 800 1100 2120 9890 10100 16100
2026-04-20 03:45 23.81 279 16700 (2013) 507 (2014) 5460 526 800 1100 2120 9890 10100 16100
2026-04-20 02:45 23.81 279 16700 (2013) 507 (2014) 5460 526 800 1100 2120 9890 10100 16100
2026-04-20 01:45 23.80 278 16700 (2013) 507 (2014) 5460 526 800 1100 2120 9890 10100 16100
2026-04-20 00:45 23.80 278 16700 (2013) 507 (2014) 5460 526 800 1100 2120 9890 10100 16100
2026-04-19 23:45 23.80 278 16700 (2013) 507 (2014) 5460 526 800 1100 2120 9890 10100 16100
2026-04-19 22:45 23.79 278 16100 (2013) 580 (2014) 5110 610 888 911 2580 9280 11600 15700
2026-04-19 21:45 23.79 278 16100 (2013) 580 (2014) 5110 610 888 911 2580 9280 11600 15700
2026-04-19 20:45 23.78 278 16100 (2013) 580 (2014) 5110 610 888 911 2580 9280 11600 15700
2026-04-19 19:45 23.78 278 16100 (2013) 580 (2014) 5110 610 888 911 2580 9280 11600 15700
2026-04-19 18:45 23.78 278 16100 (2013) 580 (2014) 5110 610 888 911 2580 9280 11600 15700
2026-04-19 17:45 23.79 278 16100 (2013) 580 (2014) 5110 610 888 911 2580 9280 11600 15700
2026-04-19 16:45 23.79 278 16100 (2013) 580 (2014) 5110 610 888 911 2580 9280 11600 15700
2026-04-19 15:45 23.78 278 16100 (2013) 580 (2014) 5110 610 888 911 2580 9280 11600 15700
2026-04-19 14:45 23.79 278 16100 (2013) 580 (2014) 5110 610 888 911 2580 9280 11600 15700
2026-04-19 13:45 23.78 278 16100 (2013) 580 (2014) 5110 610 888 911 2580 9280 11600 15700
2026-04-19 12:45 23.75 21800 16100 (2013) 580 (2014) 5110 610 888 911 2580 9280 11600 15700
2026-04-19 11:45 23.74 21800 16100 (2013) 580 (2014) 5110 610 888 911 2580 9280 11600 15700
2026-04-19 10:45 23.73 277 16100 (2013) 580 (2014) 5110 610 888 911 2580 9280 11600 15700
2026-04-19 09:45 23.72 21500 16100 (2013) 580 (2014) 5110 610 888 911 2580 9280 11600 15700
2026-04-19 08:45 23.71 21400 16100 (2013) 580 (2014) 5110 610 888 911 2580 9280 11600 15700
2026-04-19 07:45 23.70 21400 16100 (2013) 580 (2014) 5110 610 888 911 2580 9280 11600 15700
2026-04-19 06:45 23.69 21200 16100 (2013) 580 (2014) 5110 610 888 911 2580 9280 11600 15700
2026-04-19 05:45 23.67 20800 16100 (2013) 580 (2014) 5110 610 888 911 2580 9280 11600 15700
2026-04-19 04:45 23.64 276 16100 (2013) 580 (2014) 5110 610 888 911 2580 9280 11600 15700
2026-04-19 03:45 23.61 20600 16100 (2013) 580 (2014) 5110 610 888 911 2580 9280 11600 15700
2026-04-19 02:45 23.58 20600 16100 (2013) 580 (2014) 5110 610 888 911 2580 9280 11600 15700
2026-04-19 01:45 23.54 20400 16100 (2013) 580 (2014) 5110 610 888 911 2580 9280 11600 15700
2026-04-19 00:45 23.51 20000 16100 (2013) 580 (2014) 5110 610 888 911 2580 9280 11600 15700
2026-04-18 23:45 23.48 19900 16100 (2013) 580 (2014) 5110 610 888 911 2580 9280 11600 15700
2026-04-18 22:45 23.44 19800 12400 (2017) 721 (2014) 4160 722 794 963 3110 5680 9580 12300
2026-04-18 21:45 23.42 19700 12400 (2017) 721 (2014) 4160 722 794 963 3110 5680 9580 12300
2026-04-18 20:45 23.39 19300 12400 (2017) 721 (2014) 4160 722 794 963 3110 5680 9580 12300
2026-04-18 19:45 23.36 19200 12400 (2017) 721 (2014) 4160 722 794 963 3110 5680 9580 12300
2026-04-18 18:45 23.33 19400 12400 (2017) 721 (2014) 4160 722 794 963 3110 5680 9580 12300
2026-04-18 17:45 23.30 270 12400 (2017) 721 (2014) 4160 722 794 963 3110 5680 9580 12300
2026-04-18 16:45 23.25 18000 12400 (2017) 721 (2014) 4160 722 794 963 3110 5680 9580 12300
2026-04-18 15:45 23.22 18100 12400 (2017) 721 (2014) 4160 722 794 963 3110 5680 9580 12300
2026-04-18 14:45 23.21 18200 12400 (2017) 721 (2014) 4160 722 794 963 3110 5680 9580 12300
2026-04-18 13:45 23.15 18200 12400 (2017) 721 (2014) 4160 722 794 963 3110 5680 9580 12300
2026-04-18 12:45 23.09 18600 12400 (2017) 721 (2014) 4160 722 794 963 3110 5680 9580 12300
2026-04-18 11:45 23.03 18800 12400 (2017) 721 (2014) 4160 722 794 963 3110 5680 9580 12300
2026-04-18 10:45 22.97 18800 12400 (2017) 721 (2014) 4160 722 794 963 3110 5680 9580 12300
2026-04-18 09:45 22.89 19100 12400 (2017) 721 (2014) 4160 722 794 963 3110 5680 9580 12300
2026-04-18 08:45 22.78 18500 12400 (2017) 721 (2014) 4160 722 794 963 3110 5680 9580 12300
2026-04-18 07:45 22.68 18300 12400 (2017) 721 (2014) 4160 722 794 963 3110 5680 9580 12300
2026-04-18 06:45 22.61 18100 12400 (2017) 721 (2014) 4160 722 794 963 3110 5680 9580 12300
2026-04-18 05:45 22.50 18200 12400 (2017) 721 (2014) 4160 722 794 963 3110 5680 9580 12300
2026-04-18 04:45 22.35 17900 12400 (2017) 721 (2014) 4160 722 794 963 3110 5680 9580 12300
2026-04-18 03:45 22.17 17600 12400 (2017) 721 (2014) 4160 722 794 963 3110 5680 9580 12300
2026-04-18 02:45 21.94 17400 12400 (2017) 721 (2014) 4160 722 794 963 3110 5680 9580 12300
2026-04-18 01:45 21.66 17200 12400 (2017) 721 (2014) 4160 722 794 963 3110 5680 9580 12300
2026-04-18 00:45 21.28 16700 12400 (2017) 721 (2014) 4160 722 794 963 3110 5680 9580 12300
2026-04-17 23:45 20.75 16300 12400 (2017) 721 (2014) 4160 722 794 963 3110 5680 9580 12300
2026-04-17 22:45 20.14 15600 9800 (2017) 695 (2016) 3680 701 814 983 3580 5280 5790 9420
2026-04-17 21:45 19.49 15000 9800 (2017) 695 (2016) 3680 701 814 983 3580 5280 5790 9420
2026-04-17 20:45 18.99 14100 9800 (2017) 695 (2016) 3680 701 814 983 3580 5280 5790 9420
2026-04-17 19:45 18.70 13400 9800 (2017) 695 (2016) 3680 701 814 983 3580 5280 5790 9420
2026-04-17 18:45 18.59 13000 9800 (2017) 695 (2016) 3680 701 814 983 3580 5280 5790 9420
2026-04-17 17:45 18.58 13000 9800 (2017) 695 (2016) 3680 701 814 983 3580 5280 5790 9420
2026-04-17 16:45 18.61 13000 9800 (2017) 695 (2016) 3680 701 814 983 3580 5280 5790 9420
2026-04-17 15:45 18.66 13000 9800 (2017) 695 (2016) 3680 701 814 983 3580 5280 5790 9420
2026-04-17 14:45 18.70 13100 9800 (2017) 695 (2016) 3680 701 814 983 3580 5280 5790 9420
2026-04-17 13:45 18.80 13300 9800 (2017) 695 (2016) 3680 701 814 983 3580 5280 5790 9420
2026-04-17 12:45 18.81 13300 9800 (2017) 695 (2016) 3680 701 814 983 3580 5280 5790 9420
2026-04-17 11:45 18.87 13500 9800 (2017) 695 (2016) 3680 701 814 983 3580 5280 5790 9420
2026-04-17 10:45 18.92 13700 9800 (2017) 695 (2016) 3680 701 814 983 3580 5280 5790 9420
2026-04-17 09:45 18.93 13600 9800 (2017) 695 (2016) 3680 701 814 983 3580 5280 5790 9420
2026-04-17 08:45 18.99 13900 9800 (2017) 695 (2016) 3680 701 814 983 3580 5280 5790 9420
2026-04-17 07:45 19.03 13900 9800 (2017) 695 (2016) 3680 701 814 983 3580 5280 5790 9420
2026-04-17 06:45 19.07 14200 9800 (2017) 695 (2016) 3680 701 814 983 3580 5280 5790 9420
2026-04-17 05:45 19.12 14300 9800 (2017) 695 (2016) 3680 701 814 983 3580 5280 5790 9420
2026-04-17 04:45 19.14 14400 9800 (2017) 695 (2016) 3680 701 814 983 3580 5280 5790 9420
2026-04-17 03:45 19.18 14300 9800 (2017) 695 (2016) 3680 701 814 983 3580 5280 5790 9420
2026-04-17 02:45 19.22 14500 9800 (2017) 695 (2016) 3680 701 814 983 3580 5280 5790 9420
2026-04-17 01:45 19.24 14600 9800 (2017) 695 (2016) 3680 701 814 983 3580 5280 5790 9420
2026-04-17 00:45 19.27 14800 9800 (2017) 695 (2016) 3680 701 814 983 3580 5280 5790 9420
2026-04-16 23:45 19.29 15000 9800 (2017) 695 (2016) 3680 701 814 983 3580 5280 5790 9420
2026-04-16 22:45 19.33 15000 7870 (2015) 775 (2016) 3700 777 846 980 3540 6310 6510 7740
2026-04-16 21:45 19.36 15100 7870 (2015) 775 (2016) 3700 777 846 980 3540 6310 6510 7740
2026-04-16 20:45 19.38 15200 7870 (2015) 775 (2016) 3700 777 846 980 3540 6310 6510 7740
2026-04-16 19:45 19.41 15500 7870 (2015) 775 (2016) 3700 777 846 980 3540 6310 6510 7740
2026-04-16 18:45 19.47 15200 7870 (2015) 775 (2016) 3700 777 846 980 3540 6310 6510 7740
2026-04-16 17:45 19.49 15300 7870 (2015) 775 (2016) 3700 777 846 980 3540 6310 6510 7740
2026-04-16 16:45 19.53 15600 7870 (2015) 775 (2016) 3700 777 846 980 3540 6310 6510 7740
2026-04-16 15:45 19.53 15600 7870 (2015) 775 (2016) 3700 777 846 980 3540 6310 6510 7740
2026-04-16 14:45 19.56 15600 7870 (2015) 775 (2016) 3700 777 846 980 3540 6310 6510 7740
2026-04-16 13:45 19.57 15700 7870 (2015) 775 (2016) 3700 777 846 980 3540 6310 6510 7740
2026-04-16 12:45 19.58 15700 7870 (2015) 775 (2016) 3700 777 846 980 3540 6310 6510 7740
2026-04-16 11:45 19.56 15700 7870 (2015) 775 (2016) 3700 777 846 980 3540 6310 6510 7740
2026-04-16 10:45 19.58 15800 7870 (2015) 775 (2016) 3700 777 846 980 3540 6310 6510 7740
2026-04-16 09:45 19.55 15900 7870 (2015) 775 (2016) 3700 777 846 980 3540 6310 6510 7740
2026-04-16 08:45 19.55 16000 7870 (2015) 775 (2016) 3700 777 846 980 3540 6310 6510 7740
2026-04-16 07:45 19.53 15800 7870 (2015) 775 (2016) 3700 777 846 980 3540 6310 6510 7740
2026-04-16 06:45 19.51 15900 7870 (2015) 775 (2016) 3700 777 846 980 3540 6310 6510 7740
2026-04-16 05:45 19.47 15600 7870 (2015) 775 (2016) 3700 777 846 980 3540 6310 6510 7740
2026-04-16 04:45 19.41 15700 7870 (2015) 775 (2016) 3700 777 846 980 3540 6310 6510 7740
2026-04-16 03:45 19.34 15600 7870 (2015) 775 (2016) 3700 777 846 980 3540 6310 6510 7740
2026-04-16 02:45 19.27 15200 7870 (2015) 775 (2016) 3700 777 846 980 3540 6310 6510 7740
2026-04-16 01:45 19.18 15300 7870 (2015) 775 (2016) 3700 777 846 980 3540 6310 6510 7740
2026-04-16 00:45 19.09 15000 7870 (2015) 775 (2016) 3700 777 846 980 3540 6310 6510 7740
2026-04-15 23:45 18.98 15000 7870 (2015) 775 (2016) 3700 777 846 980 3540 6310 6510 7740
2026-04-15 22:45 18.87 15000 10200 (2015) 601 (2014) 3920 648 1090 1150 4110 5650 5880 9780
2026-04-15 21:45 18.77 14900 10200 (2015) 601 (2014) 3920 648 1090 1150 4110 5650 5880 9780
2026-04-15 20:45 18.65 14500 10200 (2015) 601 (2014) 3920 648 1090 1150 4110 5650 5880 9780
2026-04-15 19:45 18.51 14400 10200 (2015) 601 (2014) 3920 648 1090 1150 4110 5650 5880 9780
2026-04-15 18:45 18.43 14400 10200 (2015) 601 (2014) 3920 648 1090 1150 4110 5650 5880 9780
2026-04-15 17:45 18.31 14000 10200 (2015) 601 (2014) 3920 648 1090 1150 4110 5650 5880 9780
2026-04-15 16:45 18.21 14100 10200 (2015) 601 (2014) 3920 648 1090 1150 4110 5650 5880 9780
2026-04-15 15:45 18.12 14000 10200 (2015) 601 (2014) 3920 648 1090 1150 4110 5650 5880 9780
2026-04-15 14:45 17.94 13700 10200 (2015) 601 (2014) 3920 648 1090 1150 4110 5650 5880 9780
2026-04-15 13:45 17.77 13600 10200 (2015) 601 (2014) 3920 648 1090 1150 4110 5650 5880 9780
2026-04-15 12:45 17.52 13400 10200 (2015) 601 (2014) 3920 648 1090 1150 4110 5650 5880 9780
2026-04-15 11:45 17.28 13000 10200 (2015) 601 (2014) 3920 648 1090 1150 4110 5650 5880 9780
2026-04-15 10:45 16.99 12600 10200 (2015) 601 (2014) 3920 648 1090 1150 4110 5650 5880 9780
2026-04-15 09:45 16.79 12000 10200 (2015) 601 (2014) 3920 648 1090 1150 4110 5650 5880 9780
2026-04-15 08:45 16.66 11900 10200 (2015) 601 (2014) 3920 648 1090 1150 4110 5650 5880 9780
2026-04-15 07:45 16.57 11500 10200 (2015) 601 (2014) 3920 648 1090 1150 4110 5650 5880 9780
2026-04-15 06:45 16.50 11500 10200 (2015) 601 (2014) 3920 648 1090 1150 4110 5650 5880 9780
2026-04-15 05:45 16.39 11400 10200 (2015) 601 (2014) 3920 648 1090 1150 4110 5650 5880 9780
2026-04-15 04:45 16.34 11200 10200 (2015) 601 (2014) 3920 648 1090 1150 4110 5650 5880 9780
2026-04-15 03:45 16.29 11100 10200 (2015) 601 (2014) 3920 648 1090 1150 4110 5650 5880 9780
2026-04-15 02:45 16.18 11000 10200 (2015) 601 (2014) 3920 648 1090 1150 4110 5650 5880 9780
2026-04-15 01:45 16.18 10900 10200 (2015) 601 (2014) 3920 648 1090 1150 4110 5650 5880 9780
2026-04-15 00:45 16.15 10900 10200 (2015) 601 (2014) 3920 648 1090 1150 4110 5650 5880 9780
2026-04-14 23:45 16.12 10800 10200 (2015) 601 (2014) 3920 648 1090 1150 4110 5650 5880 9780
2026-04-14 22:45 16.09 10800 9790 (2015) 433 (2014) 3770 499 1140 1270 2740 6220 6660 9490
2026-04-14 21:45 16.06 10600 9790 (2015) 433 (2014) 3770 499 1140 1270 2740 6220 6660 9490
2026-04-14 20:45 16.00 10500 9790 (2015) 433 (2014) 3770 499 1140 1270 2740 6220 6660 9490
2026-04-14 19:45 16.00 10600 9790 (2015) 433 (2014) 3770 499 1140 1270 2740 6220 6660 9490
2026-04-14 18:45 15.97 10500 9790 (2015) 433 (2014) 3770 499 1140 1270 2740 6220 6660 9490
2026-04-14 17:45 15.92 10600 9790 (2015) 433 (2014) 3770 499 1140 1270 2740 6220 6660 9490
2026-04-14 16:45 15.93 10500 9790 (2015) 433 (2014) 3770 499 1140 1270 2740 6220 6660 9490
2026-04-14 15:45 15.90 10400 9790 (2015) 433 (2014) 3770 499 1140 1270 2740 6220 6660 9490
2026-04-14 14:45 15.84 10400 9790 (2015) 433 (2014) 3770 499 1140 1270 2740 6220 6660 9490
2026-04-14 13:45 15.85 10300 9790 (2015) 433 (2014) 3770 499 1140 1270 2740 6220 6660 9490
2026-04-14 12:45 15.78 10200 9790 (2015) 433 (2014) 3770 499 1140 1270 2740 6220 6660 9490
2026-04-14 11:45 15.82 10300 9790 (2015) 433 (2014) 3770 499 1140 1270 2740 6220 6660 9490
2026-04-14 09:45 15.78 9910 9790 (2015) 433 (2014) 3770 499 1140 1270 2740 6220 6660 9490
2026-04-14 08:45 15.76 9890 9790 (2015) 433 (2014) 3770 499 1140 1270 2740 6220 6660 9490
2026-04-14 07:45 15.74 9800 9790 (2015) 433 (2014) 3770 499 1140 1270 2740 6220 6660 9490
2026-04-14 06:45 15.73 9800 9790 (2015) 433 (2014) 3770 499 1140 1270 2740 6220 6660 9490
2026-04-14 05:45 15.71 9940 9790 (2015) 433 (2014) 3770 499 1140 1270 2740 6220 6660 9490
2026-04-14 04:45 15.70 9740 9790 (2015) 433 (2014) 3770 499 1140 1270 2740 6220 6660 9490
2026-04-14 03:45 15.69 9740 9790 (2015) 433 (2014) 3770 499 1140 1270 2740 6220 6660 9490
2026-04-14 02:45 15.67 9610 9790 (2015) 433 (2014) 3770 499 1140 1270 2740 6220 6660 9490
2026-04-14 01:45 15.67 9650 9790 (2015) 433 (2014) 3770 499 1140 1270 2740 6220 6660 9490
2026-04-14 00:45 15.65 9670 9790 (2015) 433 (2014) 3770 499 1140 1270 2740 6220 6660 9490
2026-04-13 23:45 15.66 9530 9790 (2015) 433 (2014) 3770 499 1140 1270 2740 6220 6660 9490
2026-04-13 22:45 15.66 9560 10300 (2013) 494 (2014) 3550 549 1080 1180 2650 6130 6200 9890
2026-04-13 21:45 15.65 9560 10300 (2013) 494 (2014) 3550 549 1080 1180 2650 6130 6200 9890
2026-04-13 20:45 15.65 9640 10300 (2013) 494 (2014) 3550 549 1080 1180 2650 6130 6200 9890
2026-04-13 19:45 15.67 9570 10300 (2013) 494 (2014) 3550 549 1080 1180 2650 6130 6200 9890
2026-04-13 18:45 15.67 9450 10300 (2013) 494 (2014) 3550 549 1080 1180 2650 6130 6200 9890
2026-04-13 17:45 15.67 9650 10300 (2013) 494 (2014) 3550 549 1080 1180 2650 6130 6200 9890
2026-04-13 16:45 15.71 9480 10300 (2013) 494 (2014) 3550 549 1080 1180 2650 6130 6200 9890
2026-04-13 15:45 15.77 9430 10300 (2013) 494 (2014) 3550 549 1080 1180 2650 6130 6200 9890
2026-04-13 14:45 15.82 9620 10300 (2013) 494 (2014) 3550 549 1080 1180 2650 6130 6200 9890
2026-04-13 13:45 15.84 9590 10300 (2013) 494 (2014) 3550 549 1080 1180 2650 6130 6200 9890
2026-04-13 12:45 15.91 9670 10300 (2013) 494 (2014) 3550 549 1080 1180 2650 6130 6200 9890
2026-04-13 11:45 15.97 9820 10300 (2013) 494 (2014) 3550 549 1080 1180 2650 6130 6200 9890
2026-04-13 10:45 15.98 9790 10300 (2013) 494 (2014) 3550 549 1080 1180 2650 6130 6200 9890
2026-04-13 09:45 16.07 10000 10300 (2013) 494 (2014) 3550 549 1080 1180 2650 6130 6200 9890
2026-04-13 08:45 16.11 10100 10300 (2013) 494 (2014) 3550 549 1080 1180 2650 6130 6200 9890
2026-04-13 07:45 16.16 10100 10300 (2013) 494 (2014) 3550 549 1080 1180 2650 6130 6200 9890
2026-04-13 06:45 16.20 10200 10300 (2013) 494 (2014) 3550 549 1080 1180 2650 6130 6200 9890
2026-04-13 05:45 16.24 10400 10300 (2013) 494 (2014) 3550 549 1080 1180 2650 6130 6200 9890
2026-04-13 04:45 16.28 10500 10300 (2013) 494 (2014) 3550 549 1080 1180 2650 6130 6200 9890
2026-04-13 03:45 16.31 10600 10300 (2013) 494 (2014) 3550 549 1080 1180 2650 6130 6200 9890
2026-04-13 02:45 16.35 10600 10300 (2013) 494 (2014) 3550 549 1080 1180 2650 6130 6200 9890
2026-04-13 01:45 16.37 10500 10300 (2013) 494 (2014) 3550 549 1080 1180 2650 6130 6200 9890
2026-04-13 00:45 16.40 10600 10300 (2013) 494 (2014) 3550 549 1080 1180 2650 6130 6200 9890
2026-04-12 23:45 16.41 10700 10300 (2013) 494 (2014) 3550 549 1080 1180 2650 6130 6200 9890
2026-04-12 22:45 16.44 10600 10800 (2013) 761 (2014) 3220 810 1260 1300 2050 3990 5760 10400
2026-04-12 21:45 16.45 10800 10800 (2013) 761 (2014) 3220 810 1260 1300 2050 3990 5760 10400
2026-04-12 20:45 16.47 10600 10800 (2013) 761 (2014) 3220 810 1260 1300 2050 3990 5760 10400
2026-04-12 19:45 16.48 10700 10800 (2013) 761 (2014) 3220 810 1260 1300 2050 3990 5760 10400
2026-04-12 18:45 16.48 10700 10800 (2013) 761 (2014) 3220 810 1260 1300 2050 3990 5760 10400
2026-04-12 17:45 16.47 10600 10800 (2013) 761 (2014) 3220 810 1260 1300 2050 3990 5760 10400
2026-04-12 16:45 16.48 10500 10800 (2013) 761 (2014) 3220 810 1260 1300 2050 3990 5760 10400
2026-04-12 15:45 16.47 10600 10800 (2013) 761 (2014) 3220 810 1260 1300 2050 3990 5760 10400
2026-04-12 14:45 16.43 10700 10800 (2013) 761 (2014) 3220 810 1260 1300 2050 3990 5760 10400
2026-04-12 13:45 16.43 10800 10800 (2013) 761 (2014) 3220 810 1260 1300 2050 3990 5760 10400
2026-04-12 12:45 16.39 10700 10800 (2013) 761 (2014) 3220 810 1260 1300 2050 3990 5760 10400
2026-04-12 11:45 16.37 10800 10800 (2013) 761 (2014) 3220 810 1260 1300 2050 3990 5760 10400
2026-04-12 10:45 16.38 10800 10800 (2013) 761 (2014) 3220 810 1260 1300 2050 3990 5760 10400
2026-04-12 09:45 16.35 10800 10800 (2013) 761 (2014) 3220 810 1260 1300 2050 3990 5760 10400
2026-04-12 08:45 16.31 10700 10800 (2013) 761 (2014) 3220 810 1260 1300 2050 3990 5760 10400
2026-04-12 07:45 16.26 10800 10800 (2013) 761 (2014) 3220 810 1260 1300 2050 3990 5760 10400
2026-04-12 06:45 16.24 10800 10800 (2013) 761 (2014) 3220 810 1260 1300 2050 3990 5760 10400
2026-04-12 05:45 16.20 11000 10800 (2013) 761 (2014) 3220 810 1260 1300 2050 3990 5760 10400
2026-04-12 04:45 16.15 10700 10800 (2013) 761 (2014) 3220 810 1260 1300 2050 3990 5760 10400
2026-04-12 03:45 16.09 10700 10800 (2013) 761 (2014) 3220 810 1260 1300 2050 3990 5760 10400
2026-04-12 02:45 16.01 10400 10800 (2013) 761 (2014) 3220 810 1260 1300 2050 3990 5760 10400
2026-04-12 01:45 15.93 10400 10800 (2013) 761 (2014) 3220 810 1260 1300 2050 3990 5760 10400
2026-04-12 00:45 15.85 10100 10800 (2013) 761 (2014) 3220 810 1260 1300 2050 3990 5760 10400
2026-04-11 23:45 15.76 10000 10800 (2013) 761 (2014) 3220 810 1260 1300 2050 3990 5760 10400
2026-04-11 22:45 15.65 9640 7940 (2013) 823 (2014) 3080 833 1000 1210 1590 5060 6700 7880
2026-04-11 21:45 15.54 9300 7940 (2013) 823 (2014) 3080 833 1000 1210 1590 5060 6700 7880
2026-04-11 20:45 15.43 9010 7940 (2013) 823 (2014) 3080 833 1000 1210 1590 5060 6700 7880
2026-04-11 19:45 15.30 8600 7940 (2013) 823 (2014) 3080 833 1000 1210 1590 5060 6700 7880
2026-04-11 18:45 15.17 8090 7940 (2013) 823 (2014) 3080 833 1000 1210 1590 5060 6700 7880
2026-04-11 17:45 15.00 7820 7940 (2013) 823 (2014) 3080 833 1000 1210 1590 5060 6700 7880
2026-04-11 16:45 14.90 7360 7940 (2013) 823 (2014) 3080 833 1000 1210 1590 5060 6700 7880
2026-04-11 15:45 14.77 7010 7940 (2013) 823 (2014) 3080 833 1000 1210 1590 5060 6700 7880
2026-04-11 14:45 14.70 6400 7940 (2013) 823 (2014) 3080 833 1000 1210 1590 5060 6700 7880
2026-04-11 13:45 14.61 6110 7940 (2013) 823 (2014) 3080 833 1000 1210 1590 5060 6700 7880
2026-04-11 12:45 14.52 5790 7940 (2013) 823 (2014) 3080 833 1000 1210 1590 5060 6700 7880
2026-04-11 11:45 14.45 5690 7940 (2013) 823 (2014) 3080 833 1000 1210 1590 5060 6700 7880
2026-04-11 10:45 14.41 5320 7940 (2013) 823 (2014) 3080 833 1000 1210 1590 5060 6700 7880
2026-04-11 09:45 14.35 4450 7940 (2013) 823 (2014) 3080 833 1000 1210 1590 5060 6700 7880
2026-04-11 08:45 14.30 4400 7940 (2013) 823 (2014) 3080 833 1000 1210 1590 5060 6700 7880
2026-04-11 07:45 14.28 4380 7940 (2013) 823 (2014) 3080 833 1000 1210 1590 5060 6700 7880
2026-04-11 06:45 14.24 4350 7940 (2013) 823 (2014) 3080 833 1000 1210 1590 5060 6700 7880
2026-04-11 05:45 14.21 4320 7940 (2013) 823 (2014) 3080 833 1000 1210 1590 5060 6700 7880
2026-04-11 04:45 14.18 4290 7940 (2013) 823 (2014) 3080 833 1000 1210 1590 5060 6700 7880
2026-04-11 03:45 14.16 4270 7940 (2013) 823 (2014) 3080 833 1000 1210 1590 5060 6700 7880
2026-04-11 02:45 14.14 4250 7940 (2013) 823 (2014) 3080 833 1000 1210 1590 5060 6700 7880
2026-04-11 01:45 14.12 4230 7940 (2013) 823 (2014) 3080 833 1000 1210 1590 5060 6700 7880
2026-04-11 00:45 14.08 4190 7940 (2013) 823 (2014) 3080 833 1000 1210 1590 5060 6700 7880
2026-04-10 23:45 14.02 4130 7940 (2013) 823 (2014) 3080 833 1000 1210 1590 5060 6700 7880
2026-04-10 22:45 14.04 4150 9300 (2017) 528 (2016) 3480 579 1090 1230 1800 6780 7170 9100
2026-04-10 21:45 14.02 4130 9300 (2017) 528 (2016) 3480 579 1090 1230 1800 6780 7170 9100
2026-04-10 20:45 14.01 4120 9300 (2017) 528 (2016) 3480 579 1090 1230 1800 6780 7170 9100
2026-04-10 19:45 13.95 4070 9300 (2017) 528 (2016) 3480 579 1090 1230 1800 6780 7170 9100
2026-04-10 18:45 13.96 4080 9300 (2017) 528 (2016) 3480 579 1090 1230 1800 6780 7170 9100
2026-04-10 17:45 13.92 4040 9300 (2017) 528 (2016) 3480 579 1090 1230 1800 6780 7170 9100
2026-04-10 16:45 13.91 4030 9300 (2017) 528 (2016) 3480 579 1090 1230 1800 6780 7170 9100
2026-04-10 15:45 13.90 4020 9300 (2017) 528 (2016) 3480 579 1090 1230 1800 6780 7170 9100
2026-04-10 14:45 13.90 4020 9300 (2017) 528 (2016) 3480 579 1090 1230 1800 6780 7170 9100
2026-04-10 13:45 13.90 4020 9300 (2017) 528 (2016) 3480 579 1090 1230 1800 6780 7170 9100
2026-04-10 12:45 13.90 4020 9300 (2017) 528 (2016) 3480 579 1090 1230 1800 6780 7170 9100
2026-04-10 11:45 13.95 4070 9300 (2017) 528 (2016) 3480 579 1090 1230 1800 6780 7170 9100
2026-04-10 10:45 13.96 4080 9300 (2017) 528 (2016) 3480 579 1090 1230 1800 6780 7170 9100
2026-04-10 09:45 13.97 4080 9300 (2017) 528 (2016) 3480 579 1090 1230 1800 6780 7170 9100
2026-04-10 08:45 13.92 4040 9300 (2017) 528 (2016) 3480 579 1090 1230 1800 6780 7170 9100
2026-04-10 07:45 13.91 5430 9300 (2017) 528 (2016) 3480 579 1090 1230 1800 6780 7170 9100
2026-04-10 06:45 13.91 5430 9300 (2017) 528 (2016) 3480 579 1090 1230 1800 6780 7170 9100
2026-04-10 05:45 13.90 5420 9300 (2017) 528 (2016) 3480 579 1090 1230 1800 6780 7170 9100
2026-04-10 04:45 13.97 5490 9300 (2017) 528 (2016) 3480 579 1090 1230 1800 6780 7170 9100
2026-04-10 03:45 14.01 5530 9300 (2017) 528 (2016) 3480 579 1090 1230 1800 6780 7170 9100
2026-04-10 02:45 14.04 5570 9300 (2017) 528 (2016) 3480 579 1090 1230 1800 6780 7170 9100
2026-04-10 01:45 14.08 5610 9300 (2017) 528 (2016) 3480 579 1090 1230 1800 6780 7170 9100
2026-04-10 00:45 14.11 5640 9300 (2017) 528 (2016) 3480 579 1090 1230 1800 6780 7170 9100
2026-04-09 23:45 14.13 5660 9300 (2017) 528 (2016) 3480 579 1090 1230 1800 6780 7170 9100

A total of 731 rows are displayed for years 2011 through 2020.